Terminal Aerodrome Forecast
Issued by NWS

Home | Current Version | Previous Version | Text Only | Print | Product List | Glossary On
Versions: 1 2 3 4 5 6 7 8 9 10 11 12 13 14 15 16 17 18 19 20 21 22 23 24 25 26 27 28 29 30 31 32 33 34 35 36 37 38 39 40 41 42
000
FTUS41 KGYX 281120
TAFMHT
TAF
KMHT 281120Z 2812/2912 18007KT 6SM HZ SCT015
     FM281300 20010KT P6SM SCT050
     FM282000 26009G17KT P6SM BKN050
      TEMPO 2820/2822 P6SM -TSRA BKN050CB
     FM290000 31006KT P6SM SCT120=

USA.gov is the U.S. government's official web portal to all federal, state and local government web resources and services.